When you browse on this site, cookies collect data to enhance your experience and personalize the content and advertising you see.
Visit our Privacy Policy to learn more. By continuing to use the site, you agree to this use of cookies and data.
  • In Hungary
  • List of Countries
  • For 7 days
  • Water Temperature
  • Satellite Maps
  • Weather Map
  • News
  • Weather Widgets
  • user-avatar
    Login

    Hourly Weather Konieczno

    Today, 19 December, Wednesday

    Time Temperature Precipitation Wind Pressure Humidity
    00:00 -3°C° 0 mm 2 mps 747 mmHg 91%
    01:00 -3°C° 0 mm 2 mps 747 mmHg 91%
    02:00 -3°C° 0 mm 2 mps 747 mmHg 91%
    03:00 -5°C° 0 mm 3 mps 747 mmHg 91%
    04:00 -5°C° 0 mm 3 mps 746 mmHg 91%
    05:00 -5°C° 0 mm 3 mps 746 mmHg 91%
    06:00 -5°C° 0 mm 3 mps 746 mmHg 91%
    07:00 -6°C° 0 mm 3 mps 746 mmHg 91%
    08:00 -5°C° 0 mm 3 mps 746 mmHg 88%
    09:00 -5°C° 0 mm 4 mps 746 mmHg 85%
    10:00 -4°C° 0 mm 4 mps 745 mmHg 83%
    11:00 -4°C° 0 mm 4 mps 745 mmHg 81%
    12:00 -3°C° 0 mm 4 mps 745 mmHg 79%
    13:00 -2°C° 0 mm 3 mps 744 mmHg 78%
    14:00 -4°C° 0 mm 3 mps 744 mmHg 80%
    15:00 -4°C° 0 mm 3 mps 744 mmHg 83%
    16:00 -5°C° 0 mm 3 mps 743 mmHg 86%
    17:00 -5°C° 0 mm 3 mps 743 mmHg 86%
    18:00 -5°C° 0 mm 3 mps 743 mmHg 87%
    19:00 -6°C° 0 mm 3 mps 743 mmHg 87%
    20:00 -6°C° 0 mm 3 mps 743 mmHg 87%
    21:00 -6°C° 0 mm 3 mps 743 mmHg 88%
    22:00 -5°C° 0 mm 2 mps 742 mmHg 88%
    23:00 -5°C° 0 mm 2 mps 742 mmHg 87%

    Tomorrow, 20 December, Thursday

    Time Temperature Precipitation Wind Pressure Humidity
    00:00 -5°C° 0 mm 2 mps 742 mmHg 87%
    01:00 -5°C° 0 mm 2 mps 742 mmHg 86%
    02:00 -4°C° 0 mm 2 mps 742 mmHg 85%
    03:00 -4°C° 0 mm 2 mps 742 mmHg 85%
    04:00 -4°C° 0 mm 2 mps 741 mmHg 84%
    05:00 -4°C° 0 mm 2 mps 741 mmHg 83%
    06:00 -2°C° 0 mm 1 mps 741 mmHg 82%
    07:00 -2°C° 0 mm 1 mps 741 mmHg 81%
    08:00 -1°C° 0 mm 1 mps 741 mmHg 79%
    09:00 -3°C° 0 mm 2 mps 741 mmHg 78%
    10:00 -3°C° 0 mm 2 mps 741 mmHg 76%
    11:00 -2°C° 0 mm 2 mps 741 mmHg 76%
    12:00 -2°C° 0 mm 2 mps 741 mmHg 76%
    13:00 -2°C° 0 mm 2 mps 741 mmHg 76%
    14:00 -2°C° 0 mm 3 mps 741 mmHg 78%
    15:00 -2°C° 0 mm 3 mps 741 mmHg 80%
    16:00 -2°C° 0 mm 3 mps 741 mmHg 82%
    17:00 -2°C° 0.1 mm 3 mps 741 mmHg 84%
    18:00 -2°C° 0.1 mm 3 mps 741 mmHg 86%
    19:00 -3°C° 0.1 mm 4 mps 741 mmHg 88%
    20:00 -3°C° 0.4 mm 4 mps 741 mmHg 89%
    21:00 -2°C° 0.4 mm 4 mps 741 mmHg 90%
    22:00 -2°C° 0.4 mm 5 mps 741 mmHg 91%
    23:00 -2°C° 0.1 mm 5 mps 741 mmHg 90%

    Day after tomorrow, 21 December, Friday

    Time Temperature Precipitation Wind Pressure Humidity
    00:00 -2°C° 0.1 mm 5 mps 741 mmHg 89%
    01:00 -2°C° 0.1 mm 5 mps 741 mmHg 88%
    02:00 -2°C° 0 mm 5 mps 741 mmHg 89%
    03:00 -2°C° 0 mm 5 mps 741 mmHg 89%
    04:00 -2°C° 0 mm 5 mps 740 mmHg 89%
    05:00 -2°C° 0 mm 5 mps 740 mmHg 90%
    06:00 -2°C° 0 mm 4 mps 740 mmHg 90%
    07:00 -2°C° 0 mm 4 mps 740 mmHg 90%
    08:00 -2°C° 0 mm 4 mps 740 mmHg 90%
    09:00 -1°C° 0 mm 4 mps 740 mmHg 89%
    10:00 -1°C° 0 mm 4 mps 740 mmHg 88%
    11:00 0°C° 0 mm 4 mps 740 mmHg 88%
    12:00 0°C° 0 mm 4 mps 739 mmHg 89%
    13:00 0°C° 0 mm 4 mps 739 mmHg 89%
    14:00 0°C° 0 mm 4 mps 738 mmHg 89%
    15:00 0°C° 0 mm 4 mps 738 mmHg 89%
    16:00 -1°C° 0 mm 4 mps 737 mmHg 90%
    17:00 -1°C° 0.3 mm 4 mps 737 mmHg 90%
    18:00 0°C° 0.3 mm 4 mps 736 mmHg 90%
    19:00 0°C° 0.3 mm 4 mps 736 mmHg 90%
    20:00 0°C° 0.6 mm 4 mps 735 mmHg 90%
    21:00 0°C° 0.6 mm 5 mps 734 mmHg 89%
    22:00 0°C° 0.6 mm 5 mps 734 mmHg 89%
    23:00 -1°C° 0.8 mm 6 mps 733 mmHg 89%

    22 December, Saturday

    Time Temperature Precipitation Wind Pressure Humidity
    00:00 0°C° 0.8 mm 7 mps 733 mmHg 89%
    01:00 +2°C° 0.8 mm 7 mps 732 mmHg 89%
    02:00 +2°C° 0.1 mm 7 mps 732 mmHg 90%
    03:00 +2°C° 0.1 mm 7 mps 732 mmHg 90%
    04:00 +2°C° 0.1 mm 7 mps 732 mmHg 91%
    05:00 +2°C° 0 mm 7 mps 732 mmHg 90%
    06:00 +2°C° 0 mm 7 mps 733 mmHg 88%
    07:00 +2°C° 0 mm 7 mps 733 mmHg 87%
    08:00 +2°C° 0 mm 6 mps 734 mmHg 86%
    09:00 +2°C° 0 mm 6 mps 734 mmHg 86%
    10:00 +2°C° 0 mm 6 mps 734 mmHg 86%
    11:00 +2°C° 0 mm 6 mps 734 mmHg 86%
    12:00 +3°C° 0 mm 6 mps 733 mmHg 86%
    13:00 +3°C° 0 mm 6 mps 733 mmHg 86%
    14:00 +3°C° 0.1 mm 6 mps 732 mmHg 88%
    15:00 +3°C° 0.1 mm 6 mps 732 mmHg 89%
    16:00 +3°C° 0.1 mm 5 mps 731 mmHg 91%
    17:00 +3°C° 0.3 mm 6 mps 731 mmHg 89%
    18:00 +4°C° 0.3 mm 7 mps 731 mmHg 88%
    19:00 +4°C° 0.3 mm 8 mps 731 mmHg 87%
    20:00 +4°C° 0.1 mm 8 mps 731 mmHg 86%
    21:00 +4°C° 0.1 mm 8 mps 731 mmHg 84%
    22:00 +2°C° 0.1 mm 8 mps 731 mmHg 83%
    23:00 +2°C° 0.1 mm 8 mps 732 mmHg 84%

    23 December, Sunday

    Time Temperature Precipitation Wind Pressure Humidity
    00:00 +3°C° 0.1 mm 7 mps 733 mmHg 85%
    01:00 +3°C° 0.1 mm 7 mps 733 mmHg 86%
    02:00 +3°C° 0.1 mm 7 mps 733 mmHg 85%
    03:00 +3°C° 0.1 mm 7 mps 734 mmHg 85%
    04:00 +3°C° 0.1 mm 7 mps 734 mmHg 84%
    05:00 +3°C° 0.1 mm 7 mps 734 mmHg 84%
    06:00 +2°C° 0.1 mm 8 mps 735 mmHg 83%
    07:00 +2°C° 0.1 mm 8 mps 735 mmHg 82%
    08:00 +2°C° 0.1 mm 8 mps 735 mmHg 82%
    09:00 +2°C° 0.1 mm 8 mps 736 mmHg 82%
    10:00 +2°C° 0.1 mm 8 mps 736 mmHg 82%
    11:00 +2°C° 0.1 mm 8 mps 736 mmHg 82%
    12:00 +2°C° 0.1 mm 8 mps 736 mmHg 81%
    13:00 +3°C° 0.1 mm 7 mps 736 mmHg 81%
    14:00 +3°C° 0.1 mm 7 mps 737 mmHg 81%
    15:00 +3°C° 0.1 mm 7 mps 737 mmHg 82%
    16:00 +3°C° 0.1 mm 6 mps 737 mmHg 83%
    17:00 +3°C° 0.1 mm 6 mps 737 mmHg 83%
    18:00 +3°C° 0.1 mm 6 mps 737 mmHg 84%
    19:00 +2°C° 0.1 mm 6 mps 737 mmHg 85%
    20:00 +2°C° 0.1 mm 6 mps 738 mmHg 84%
    21:00 +2°C° 0.1 mm 6 mps 738 mmHg 84%
    22:00 +2°C° 0.1 mm 6 mps 738 mmHg 84%
    23:00 +2°C° 0.1 mm 6 mps 738 mmHg 84%

    24 December, Monday

    Time Temperature Precipitation Wind Pressure Humidity
    00:00 +2°C° 0.1 mm 7 mps 738 mmHg 84%
    01:00 +2°C° 0.1 mm 7 mps 738 mmHg 84%
    02:00 +2°C° 0.1 mm 7 mps 738 mmHg 83%
    03:00 0°C° 0.1 mm 7 mps 738 mmHg 82%
    04:00 0°C° 0.1 mm 7 mps 738 mmHg 82%
    05:00 0°C° 0.1 mm 7 mps 738 mmHg 82%
    06:00 +1°C° 0.1 mm 6 mps 739 mmHg 82%
    07:00 +1°C° 0.1 mm 6 mps 739 mmHg 83%
    08:00 +1°C° 0 mm 5 mps 739 mmHg 83%
    09:00 +1°C° 0 mm 5 mps 740 mmHg 83%
    10:00 +1°C° 0 mm 4 mps 740 mmHg 83%
    11:00 +1°C° 0 mm 4 mps 740 mmHg 82%
    12:00 +1°C° 0 mm 4 mps 740 mmHg 81%
    13:00 +3°C° 0 mm 4 mps 740 mmHg 81%
    14:00 +1°C° 0 mm 4 mps 740 mmHg 83%
    15:00 +2°C° 0 mm 3 mps 740 mmHg 86%
    16:00 +2°C° 0 mm 3 mps 740 mmHg 88%
    17:00 +2°C° 0.1 mm 3 mps 740 mmHg 90%
    18:00 +2°C° 0.1 mm 3 mps 741 mmHg 91%
    19:00 +1°C° 0.1 mm 3 mps 741 mmHg 92%
    20:00 +1°C° 0.1 mm 3 mps 741 mmHg 93%
    21:00 +1°C° 0.1 mm 3 mps 741 mmHg 93%
    22:00 +1°C° 0.1 mm 3 mps 741 mmHg 94%
    23:00 +1°C° 0 mm 3 mps 741 mmHg 94%
    Show more